Regional Weather Roundup
Issued by NWS

Home | Current Version | Previous Version | Text Only | Print | Product List | Glossary Off
Versions: 1 2 3 4 5 6 7 8 9 10 11 12 13 14 15 16 17 18 19 20 21 22 23 24 25 26 27 28 29 30 31 32 33 34 35 36 37 38 39 40 41 42 43 44 45 46 47 48 49

000
ASUS45 KBOU 201710
RWRCO

WEATHER ROUNDUP FOR COLORADO
NATIONAL WEATHER SERVICE PUEBLO CO
1000 AM MST TUE FEB 20 2018

NOTE: "FAIR" INDICATES FEW OR NO CLOUDS BELOW 12000 FEET WITH NO
SIGNIFICANT WEATHER AND/OR OBSTRUCTIONS TO VISIBILITY.

COZ001>005-013-030-031-201800-
...NORTHWEST COLORADO...

CITY           SKY/WX    TMP DP  RH WIND       PRES   REMARKS
CRAIG          CLOUDY     4  -1  80 SW5       29.95R WCI  -5
HAYDEN         PTSUNNY    5  -2  72 CALM      29.92R HAZE
MEEKER         MOSUNNY    9   3  77 CALM      29.92R
RABBIT EARS PA NOT AVBL
STEAMBOAT SPGS CLOUDY     5  -2  74 CALM      29.89R
WALDEN         FAIR       3  -8  60 CALM      29.78R
$$

COZ006>008-011-201800-
...WEST CENTRAL VALLEYS...

CITY           SKY/WX    TMP DP  RH WIND       PRES   REMARKS
GRAND JUNCTION PTSUNNY   22  17  81 S3        29.98R
MONTROSE       PTSUNNY   21  16  81 N6        29.95R WCI  13
EAGLE          CLOUDY    17   6  62 CALM      29.89R
RIFLE          PTSUNNY   16  13  88 CALM      29.96R
DELTA          NOT AVBL
NUCLA          PTSUNNY   27  12  54 W10       29.97R WCI  17
$$

COZ017>023-064>068-201800-
...SOUTHWEST COLORADO...

CITY           SKY/WX    TMP DP  RH WIND       PRES   REMARKS
DURANGO        SUNNY     22  14  71 CALM      29.93R
CORTEZ         SUNNY     23  13  65 SW5       29.96R WCI  17
PAGOSA SPRINGS PTSUNNY   19   6  57 S7        29.90R WCI  10
TELLURIDE      CLOUDY    12  -2  53 CALM      29.82R
WOLF CREEK PAS CLOUDY    -2  -4  92 S22G36    29.72R WCI -26
$$

COZ009-010-012-014-032>034-037-058>063-201800-
...CENTRAL COLORADO...

CITY           SKY/WX    TMP DP  RH WIND       PRES   REMARKS
ASPEN          LGT SNOW  13   7  77 N3        29.80R VSB 1
BUENA VISTA    FAIR      20 -10  26 SW14G21   29.77R WCI   7
COPPER MTN     HAZE       1  -8  66 W18       29.58R VSB 1   WCI -19
BERTHOUD PASS  CLOUDY    -8 -18  59 W29       29.53S HAZE    WCI -36
COTTONWOOD PAS MOSUNNY   18 -11  27 SW16G32   29.69R WCI   3
GUNNISON       MOSUNNY   19   1  45 SW13G23   29.84R WCI   6
KREMMLING      MOSUNNY   19   3  49 CALM      29.84R
LEADVILLE      LGT SNOW   6   0  76 N5        29.67R VSB 1   WCI  -3
MONARCH PASS   SUNNY      0  -6  78 SW28G40   29.72R WCI -26
SALIDA         FAIR      22   0  38 W9G17     29.89R WCI  12
SUNLIGHT       SNOW       3  -2  78 SW9G21    29.71F VSB 1/2 WCI -11
WILKERSON PASS SUNNY      5   1  85 SW12G20   29.65R WCI -11
$$

COZ069>075-201800-
...SAN LUIS VALLEY/SANGRE DE CRISTO MOUNTAINS...

CITY           SKY/WX    TMP DP  RH WIND       PRES   REMARKS
ALAMOSA        SUNNY     24   5  44 S20       29.83S WCI  10
DEL NORTE      FAIR      20  -2  38 W23G29    29.83R WCI   3
LA VETA PASS   MOSUNNY   16   1  53 S25G46    29.80R WCI  -3
SAGUACHE       SUNNY     21   5  49 NW9       29.83R WCI  11
$$

COZ035-036-038>040-201800-
...NORTHERN COLORADO FRONT RANGE...

CITY           SKY/WX    TMP DP  RH WIND       PRES   REMARKS
DENVER INTL AP PTSUNNY    3  -4  72 SE8       29.94R WCI -10
DMNS CITY PARK NOT AVBL
AURORA         PTSUNNY    3  -3  77 E8        29.92S WCI -11
FRONT RANGE AP PTSUNNY    7   0  72 SE10      29.95R WCI  -8
ERIE MUNI ARPT FAIR       5   1  82 E6        30.02S WCI  -6
BOULDER MUN AP FAIR       9   1  72 NE6       29.95R WCI  -1
CENTENNIAL     MOSUNNY    2  -2  83 SE6       29.90R WCI  -9
BROOMFIELD     PTSUNNY    5   0  78 E5        29.92S WCI  -4
LOVELAND       SUNNY      4  -2  76 S10       29.99R WCI -11
LONGMONT       FAIR      10   2  67 SE8       30.00R WCI  -1
$$

COZ041-046-047-076>085-087-088-201800-
...PIKES PEAK/PALMER DIVIDE AND SOUTHERN FOOTHILLS...

CITY           SKY/WX    TMP DP  RH WIND       PRES   REMARKS
COLO. SPRINGS  MOSUNNY    9   5  84 S3        29.89R
A. F. ACADEMY  PTSUNNY    9   2  72 S3        29.84S
SCHRIEVER AFB  NOT AVBL
CHEYENNE MTN   NOT AVBL
ELLICOTT         N/A    N/A N/A N/A W8          N/A
FALCON         FAIR      10   3  73 MISG      29.84R
FORT CARSON    MOSUNNY   10   4  75 S6        29.90R WCI   1
LIMON          SUNNY      6  -3  66 N12       29.95S WCI  -9
MONUMENT HILL  SUNNY      3   0  85 CALM      29.81R
CANON CITY     LGT SNOW  16  10  79 E5        29.93R WCI   9
WALSENBURG     CLOUDY    14  10  85 N7        29.88S WCI   4
TRINIDAD       LGT SNOW  13  11  92 NE7       29.89F FOG     WCI   3
$$

COZ042>045-048>051-090-091-201800-
...NORTHEAST COLORADO...

CITY           SKY/WX    TMP DP  RH WIND       PRES   REMARKS
GREELEY ARPT   SUNNY     -1  -8  72 CALM      30.03R
AKRON          PTSUNNY    2  -6  69 NW9       30.01R WCI -13
BURLINGTON     SUNNY      6  -3  66 N14       30.05R WCI -11
WRAY           FAIR      12   0  57 N8        30.10S WCI   1
YUMA           NOT AVBL
STERLING       FAIR       7  -4  61 N10       30.06R WCI  -8
HOLYOKE        FAIR      12  -2  52 N14       30.09R WCI  -3
FORT MORGAN    PTSUNNY    6  -7  55 S3        30.04R
$$

COZ086-089-092>099-201800-
...SOUTHEAST COLORADO...

CITY           SKY/WX    TMP DP  RH WIND       PRES   REMARKS
PUEBLO         MOSUNNY   13   6  74 SE9       29.99R WCI   1
LA JUNTA       MOSUNNY   15   1  53 NE9       30.05S WCI   3
LAMAR          SUNNY     15   0  51 N10       30.08R WCI   2
SPRINGFIELD      N/A     17   6  62 N15       30.00R WCI   2
$$





USA.gov is the U.S. government's official web portal to all federal, state and local government web resources and services.